Flag for France Weather past 2 weeks in Villeurbanne, France

Now
63 °F

Partly cloudy.


Feels Like: 63 °F
Forecast: 50 / 67 °F
Wind: 9 mph from North

Location: Lyon / Bron

Current Time: Sep 22, 2014 at 2:54:48 AM

Latest Report: Sep 22, 2014 at 2:00 AM


Visibility: N/A

Pressure: 30.12 "Hg

Humidity: 77%

Dew point: 55 °F

Location of VilleurbanneLocation

Historic Weather in Villeurbanne — Graph

°F

Villeurbanne temperature yesterday

Maximum temperature yesterday: 77 °F (at 3:00 PM)
Minimum temperature yesterday: 61 °F (at 4:00 AM)
Average temperature yesterday: 68 °F

Past Weeks' High & Low Weather Summary

 TemperatureHumidityPressure
High86 °F (Sep 7, 4:30 PM)100% (Sep 10, 5:30 AM)30.12 "Hg (Sep 10, 5:30 AM)
Low54 °F (Sep 14, 5:30 AM)35% (Sep 17, 4:00 PM)29.80 "Hg (Sep 17, 2:00 PM)
Average68 °F70%29.97 "Hg
* Reported Sep 7 2:00 AM — Sep 22 2:00 AM, Villeurbanne, Weather by CustomWeather, © 2014

Note: Actual official high and low records may vary slightly from our data, if they occured in-between our weather recording intervals... More about our weather records

Advertising

Villeurbanne weather history for previous 24 hours

 ConditionsComfort  
Time TempWeatherWind HumidityBarometerVisibility
2:00 AM
Sep 22
63 °FPartly cloudy.9 mph77%30.12 "HgN/A
1:30 AM63 °FPartly cloudy.9 mph77%30.12 "HgN/A
1:00 AM63 °FOvercast.8 mph77%30.12 "HgN/A
12:30 AM63 °FClear.9 mph77%30.12 "HgN/A
12:00 AM64 °FClear.8 mph78%30.09 "HgN/A
11:30 PM
Sep 21
64 °FPartly cloudy.8 mph73%30.09 "HgN/A
11:00 PM64 °FPassing clouds.8 mph73%30.09 "HgN/A
10:30 PM66 °FMostly cloudy.6 mph68%30.09 "HgN/A
10:00 PM66 °FPassing clouds.8 mph68%30.09 "HgN/A
9:30 PM66 °FClear.9 mph64%30.09 "HgN/A
9:00 PM68 °FClear.9 mph64%30.09 "HgN/A
8:30 PM70 °FThundershowers. Cloudy.13 mph57%30.07 "HgN/A
8:00 PM70 °FPartly sunny.9 mph64%30.07 "HgN/A
7:30 PM72 °FBroken clouds.9 mph61%30.07 "HgN/A
7:00 PM73 °FMostly cloudy.8 mph57%30.04 "HgN/A
6:30 PM73 °FClear.8 mph57%30.04 "HgN/A
6:00 PM77 °FClear.6 mph47%30.04 "HgN/A
5:30 PM77 °FPartly sunny.8 mph47%30.04 "HgN/A
5:00 PM77 °FThundershowers. Scattered clouds.5 mph47%30.04 "HgN/A
4:30 PM77 °FBroken clouds.7 mph47%30.04 "HgN/A
4:00 PM77 °FPartly sunny.6 mph51%30.04 "HgN/A
3:30 PM75 °FPartly sunny.2 mph54%30.04 "HgN/A
3:00 PM77 °FPassing clouds.6 mph54%30.04 "HgN/A
2:30 PM73 °FMild.2 mph65%30.07 "HgN/A
2:00 PM72 °FThundershowers. More clouds than sun.3 mph73%30.07 "HgN/A
1:30 PM73 °FThundershowers. Overcast.No wind57%30.07 "HgN/A
1:00 PM75 °FBroken clouds.3 mph54%30.07 "HgN/A
12:30 PM75 °FPassing clouds.2 mph57%30.07 "HgN/A
12:00 PM75 °FClear.2 mph54%30.07 "HgN/A
11:30 AM73 °FClear.No wind61%30.07 "HgN/A
11:00 AM72 °FClear.1 mph65%30.07 "HgN/A
10:30 AM68 °FClear.No wind73%30.07 "HgN/A
10:00 AM66 °FClear.No wind78%30.07 "HgN/A
9:30 AM64 °FClear.No wind83%30.07 "HgN/A
9:00 AM63 °FClear.1 mph88%30.07 "HgN/A
8:30 AM61 °FClear.No wind88%30.07 "HgN/A
8:00 AM61 °FPassing clouds.No wind88%30.07 "HgN/A
7:30 AM61 °FClear.1 mph88%30.07 "HgN/A
7:00 AM63 °FClear.2 mph83%30.04 "HgN/A
6:30 AM61 °FClear.2 mph88%30.04 "HgN/A
6:00 AM63 °FClear.2 mph88%30.04 "HgN/A
5:30 AM61 °FClear.3 mph88%30.07 "HgN/A
5:00 AM61 °FClear.No wind88%30.07 "HgN/A
4:30 AM63 °FClear.No wind88%30.07 "HgN/A
4:00 AM61 °FClear.No wind88%30.07 "HgN/A
3:30 AM63 °FClear.3 mph83%30.07 "HgN/A
3:00 AM63 °FClear.No wind83%30.04 "HgN/A
2:30 AM64 °FClear.2 mph78%30.04 "HgN/A
2:00 AM66 °FClear.2 mph73%30.07 "HgN/A
Weather by CustomWeather, © 2014

See weather overviewHow to use our weather pages